Regional Weather Roundup
Issued by NWS

Home | Current Version | Previous Version | Graphics & Text | Print | Product List | Glossary Off
Versions: 1 2 3 4 5 6 7 8 9 10 11 12 13 14 15 16 17 18 19 20 21 22 23 24 25 26 27 28 29 30 31 32 33 34 35 36 37 38 39 40 41 42 43 44 45 46 47 48 49 50

000
ASUS43 KLSX 280659
RWRMO

WEATHER SUMMARY FOR MISSOURI
NATIONAL WEATHER SERVICE SPRINGFIELD MO
200 AM CDT SAT MAR 28 2015

NOTE: "FAIR" INDICATES FEW OR NO CLOUDS BELOW 12,000 FEET WITH NO
       SIGNIFICANT WEATHER AND/OR OBSTRUCTIONS TO VISIBILITY.
       CURRENT SKY AND/OR WEATHER CONDITIONS ARE NOT AVAILABLE FOR
       CHILLICOTHE AND FARMINGTON.

MOZ001>031-035>038-043-044-053-054-280800-
...NORTHERN AND WESTERN MISSOURI...

CITY           SKY/WX    TMP DP  RH WIND       PRES   REMARKS
KANSAS CTY INT CLOUDY    38  22  52 E12       30.11R
KANSAS C DTWN  CLOUDY    41  21  44 E7        30.12R
LEE`S SUMMIT   CLOUDY    39  22  50 E6        30.12S
ST JOSEPH      CLOUDY    37  25  61 SE12      30.13R WCI  29
CHILLICOTHE      N/A     38  23  55 VRB5      30.15F
KIRKSVILLE     MOCLDY    29  19  66 E6        30.16F WCI  23

$$
MOZ066>068-077>081-088>096-101>105-280800-
...SOUTHWEST MISSOURI...

CITY           SKY/WX    TMP DP  RH WIND       PRES   REMARKS
SPRINGFIELD    CLOUDY    41  23  48 E6        30.11F
JOPLIN         MOCLDY    41  26  55 SE7       30.12F

$$
MOZ032>034-039>042-045>050-055>058-069>072-280800-
...CENTRAL MISSOURI...

CITY           SKY/WX    TMP DP  RH WIND       PRES   REMARKS
COLUMBIA       CLOUDY    35  26  69 SE5       30.15F
JEFFERSON CITY CLOUDY    36  28  73 CALM      30.17S
ROLLA          CLOUDY    33  22  63 S5        30.14S WCI  29
SEDALIA        CLOUDY    39  25  57 NE5       30.15F
OSAGE BEACH    CLOUDY    36  27  69 CALM      30.15F

$$
MOZ051-052-059>065-280800-
...EAST CENTRAL MISSOURI...

CITY           SKY/WX    TMP DP  RH WIND       PRES   REMARKS
ST LOUIS INTL  PTCLDY    30  16  56 E5        30.21S WCI  25
SPIRIT OF STL  PTCLDY    28  21  75 CALM      30.20S
ST CHARLES     PTCLDY    28  19  69 E6        30.21S WCI  22

$$
MOZ072>076-082>087-097>100-106>115-280800-
...SOUTH CENTRAL AND SOUTHEAST MISSOURI...

CITY           SKY/WX    TMP DP  RH WIND       PRES   REMARKS
CAPE GIRARDEAU CLEAR     27  25  92 E6        30.19S WCI  20
FARMINGTON     CLEAR     27  23  86 CALM      30.19S
POPLAR BLUFF   CLEAR     33  27  78 CALM      30.19S
WEST PLAINS    CLOUDY    35  22  58 CALM      30.15F

$$


USA.gov is the U.S. government's official web portal to all federal, state and local government web resources and services.